| time (UTC) | temp F | wind direction | speed MPH | gust MPH | rain 1hr in | rain 24hr in | rain mn in | humidity % | barometer mb |
| 20260506211516 | 58 | 171 | 4.0 | 10.0 | 0.14 | 0.41 | 0.34 | 91 | 1005.0 |
| 20260506210014 | 58 | 198 | 4.0 | 9.0 | 0.13 | 0.38 | 0.31 | 91 | 1005.0 |
| 20260506204512 | 58 | 208 | 4.0 | 11.0 | 0.12 | 0.36 | 0.28 | 91 | 1005.1 |
| 20260506203018 | 58 | 206 | 7.0 | 12.0 | 0.08 | 0.31 | 0.24 | 91 | 1005.2 |
| 20260506201515 | 58 | 196 | 6.0 | 12.0 | 0.05 | 0.27 | 0.20 | 91 | 1005.2 |
| 20260506200007 | 58 | 156 | 5.0 | 10.0 | 0.04 | 0.25 | 0.18 | 91 | 1005.5 |
| 20260506194506 | 58 | 198 | 6.0 | 10.0 | 0.04 | 0.24 | 0.17 | 90 | 1005.8 |
| 20260506193004 | 58 | 191 | 8.0 | 13.0 | 0.04 | 0.23 | 0.16 | 90 | 1005.9 |
| 20260506191504 | 58 | 223 | 6.0 | 13.0 | 0.04 | 0.22 | 0.15 | 90 | 1005.9 |
| 20260506190003 | 58 | 196 | 7.0 | 17.0 | 0.04 | 0.21 | 0.14 | 90 | 1006.0 |
| 20260506184501 | 58 | 203 | 7.0 | 12.0 | 0.06 | 0.20 | 0.13 | 90 | 1006.0 |
| 20260506183104 | 58 | 170 | 8.0 | 16.0 | 0.07 | 0.19 | 0.12 | 89 | 1006.3 |
| 20260506181558 | 58 | 163 | 7.0 | 18.0 | 0.08 | 0.18 | 0.11 | 89 | 1006.6 |
| 20260506180056 | 59 | 193 | 6.0 | 12.0 | 0.08 | 0.17 | 0.10 | 89 | 1006.8 |
| 20260506174552 | 59 | 208 | 3.0 | 8.0 | 0.07 | 0.15 | 0.08 | 88 | 1007.0 |
| 20260506173053 | 59 | 204 | 2.0 | 6.0 | 0.05 | 0.12 | 0.05 | 87 | 1007.2 |
| 20260506171552 | 59 | 217 | 3.0 | 7.0 | 0.03 | 0.10 | 0.03 | 86 | 1007.2 |
| 20260506170106 | 60 | 219 | 3.0 | 7.0 | 0.02 | 0.09 | 0.02 | 84 | 1007.3 |
| 20260506164546 | 60 | 231 | 1.0 | 3.0 | 0.01 | 0.08 | 0.01 | 82 | 1007.3 |
| 20260506163057 | 61 | 196 | 0.0 | 3.0 | 0.00 | 0.07 | 0.00 | 81 | 1007.3 |
| 20260506161544 | 60 | 186 | 0.0 | 2.0 | 0.00 | 0.07 | 0.00 | 81 | 1007.3 |
| 20260506160041 | 60 | 186 | 0.0 | 3.0 | 0.00 | 0.07 | 0.00 | 82 | 1007.7 |
| 20260506154536 | 60 | 186 | 1.0 | 5.0 | 0.00 | 0.07 | 0.00 | 80 | 1008.5 |
| 20260506153034 | 60 | 171 | 5.0 | 10.0 | 0.00 | 0.07 | 0.00 | 77 | 1008.8 |
| 20260506151533 | 60 | 202 | 1.0 | 5.0 | 0.00 | 0.07 | 0.00 | 77 | 1008.6 |
| 20260506150029 | 60 | 117 | 2.0 | 4.0 | 0.00 | 0.07 | 0.00 | 77 | 1008.5 |
| 20260506144531 | 59 | 175 | 0.0 | 3.0 | 0.00 | 0.07 | 0.00 | 77 | 1008.4 |
| 20260506143032 | 59 | 170 | 2.0 | 5.0 | 0.00 | 0.07 | 0.00 | 77 | 1008.6 |
| 20260506141526 | 59 | 181 | 3.0 | 6.0 | 0.00 | 0.07 | 0.00 | 77 | 1008.6 |
| 20260506140025 | 59 | 196 | 1.0 | 3.0 | 0.00 | 0.07 | 0.00 | 79 | 1008.6 |
| 20260506134523 | 58 | 198 | 2.0 | 5.0 | 0.00 | 0.07 | 0.00 | 79 | 1008.5 |
| 20260506133022 | 58 | 171 | 2.0 | 5.0 | 0.00 | 0.07 | 0.00 | 79 | 1008.9 |
| 20260506131523 | 58 | 205 | 3.0 | 6.0 | 0.00 | 0.07 | 0.00 | 79 | 1009.2 |
| 20260506130021 | 58 | 112 | 3.0 | 6.0 | 0.00 | 0.07 | 0.00 | 79 | 1009.1 |
| 20260506124517 | 57 | 175 | 2.0 | 6.0 | 0.00 | 0.07 | 0.00 | 79 | 1009.1 |
| 20260506123018 | 57 | 148 | 2.0 | 8.0 | 0.00 | 0.07 | 0.00 | 79 | 1008.7 |
| 20260506121522 | 57 | 190 | 6.0 | 9.0 | 0.00 | 0.07 | 0.00 | 79 | 1008.9 |
| 20260506120114 | 57 | 182 | 3.0 | 11.0 | 0.00 | 0.07 | 0.00 | 79 | 1009.1 |
| 20260506114511 | 57 | 178 | 4.0 | 8.0 | 0.00 | 0.07 | 0.00 | 79 | 1009.0 |
| 20260506113018 | 57 | 208 | 4.0 | 6.0 | 0.00 | 0.07 | 0.00 | 79 | 1008.9 |
| 20260506111508 | 56 | 209 | 3.0 | 7.0 | 0.00 | 0.07 | 0.00 | 78 | 1009.0 |
| 20260506110009 | 56 | 192 | 3.0 | 6.0 | 0.00 | 0.07 | 0.00 | 80 | 1009.0 |
| 20260506104505 | 55 | 166 | 1.0 | 5.0 | 0.00 | 0.07 | 0.00 | 81 | 1009.0 |
| 20260506103009 | 55 | 183 | 2.0 | 5.0 | 0.00 | 0.07 | 0.00 | 83 | 1009.4 |
| 20260506101503 | 54 | 5 | 1.0 | 3.0 | 0.00 | 0.07 | 0.00 | 83 | 1009.1 |
| 20260506100003 | 54 | 5 | 0.0 | 2.0 | 0.00 | 0.07 | 0.00 | 84 | 1008.8 |
| 20260506094502 | 54 | 5 | 1.0 | 3.0 | 0.00 | 0.07 | 0.00 | 84 | 1008.8 |
| 20260506093100 | 55 | 5 | 1.0 | 2.0 | 0.00 | 0.07 | 0.00 | 83 | 1008.7 |
| 20260506091607 | 55 | 5 | 1.0 | 4.0 | 0.00 | 0.07 | 0.00 | 83 | 1009.0 |
| 20260506084614 | 55 | 5 | 2.0 | 4.0 | 0.00 | 0.07 | 0.00 | 82 | 1009.0 |
| 20260506083053 | 56 | 297 | 1.0 | 3.0 | 0.00 | 0.07 | 0.00 | 81 | 1009.2 |
| 20260506081549 | 57 | 292 | 1.0 | 2.0 | 0.00 | 0.07 | 0.00 | 79 | 1008.8 |
| 20260506073051 | 59 | 240 | 1.0 | 5.0 | 0.00 | 0.07 | 0.00 | 76 | 1009.0 |
| 20260506071639 | 60 | 247 | 2.0 | 5.0 | 0.00 | 0.07 | 0.00 | 74 | 1008.9 |
| 20260506061547 | 60 | 192 | 4.0 | 9.0 | 0.00 | 0.07 | 0.00 | 74 | 1008.7 |
| 20260506044524 | 61 | 213 | 2.0 | 6.0 | 0.00 | 0.07 | 0.00 | 74 | 1008.8 |
| 20260506043035 | 61 | 191 | 1.0 | 5.0 | 0.00 | 0.07 | 0.00 | 74 | 1008.7 |
| 20260506041515 | 61 | 223 | 2.0 | 6.0 | 0.00 | 0.07 | 0.00 | 74 | 1008.6 |
| 20260506040013 | 61 | 227 | 5.0 | 8.0 | 0.00 | 0.07 | 0.07 | 74 | 1008.7 |
| 20260506034512 | 61 | 250 | 4.0 | 9.0 | 0.00 | 0.07 | 0.07 | 76 | 1008.7 |
| 20260506033017 | 60 | 254 | 4.0 | 7.0 | 0.00 | 0.07 | 0.07 | 75 | 1008.7 |
| 20260506031512 | 61 | 277 | 0.0 | 2.0 | 0.00 | 0.07 | 0.07 | 75 | 1008.8 |
| 20260506030013 | 61 | 278 | 1.0 | 6.0 | 0.00 | 0.07 | 0.07 | 73 | 1008.8 |
| 20260506024527 | 61 | 223 | 3.0 | 7.0 | 0.00 | 0.07 | 0.07 | 72 | 1008.6 |
| 20260506023009 | 61 | 232 | 2.0 | 6.0 | 0.00 | 0.07 | 0.07 | 71 | 1008.6 |
| 20260506021509 | 61 | 217 | 4.0 | 6.0 | 0.00 | 0.07 | 0.07 | 70 | 1008.4 |
| 20260506020009 | 62 | 236 | 4.0 | 8.0 | 0.00 | 0.07 | 0.07 | 70 | 1008.4 |
| 20260506014509 | 62 | 234 | 5.0 | 9.0 | 0.00 | 0.07 | 0.07 | 70 | 1008.7 |
| 20260506013007 | 62 | 210 | 4.0 | 8.0 | 0.00 | 0.07 | 0.07 | 70 | 1008.6 |
| 20260506011507 | 62 | 195 | 3.0 | 5.0 | 0.00 | 0.07 | 0.07 | 70 | 1008.6 |
| 20260506010008 | 61 | 203 | 2.0 | 5.0 | 0.00 | 0.07 | 0.07 | 71 | 1008.4 |
| 20260506004507 | 61 | 192 | 2.0 | 6.0 | 0.00 | 0.07 | 0.07 | 73 | 1008.3 |
| 20260506003005 | 60 | 198 | 0.0 | 6.0 | 0.00 | 0.07 | 0.07 | 75 | 1008.2 |
| 20260506001504 | 60 | 225 | 2.0 | 4.0 | 0.00 | 0.07 | 0.07 | 77 | 1008.1 |
| 20260506000007 | 60 | 215 | 2.0 | 5.0 | 0.00 | 0.07 | 0.07 | 77 | 1007.7 |
| 20260505234503 | 60 | 228 | 2.0 | 6.0 | 0.00 | 0.07 | 0.07 | 78 | 1007.5 |
| 20260505233002 | 59 | 331 | 1.0 | 5.0 | 0.01 | 0.07 | 0.07 | 78 | 1006.9 |
| 20260505231502 | 59 | 196 | 1.0 | 6.0 | 0.01 | 0.07 | 0.07 | 82 | 1006.9 |
| 20260505230002 | 59 | 190 | 3.0 | 6.0 | 0.01 | 0.07 | 0.07 | 82 | 1006.9 |
| 20260505224501 | 58 | 189 | 5.0 | 11.0 | 0.03 | 0.07 | 0.07 | 83 | 1006.5 |
| 20260505223107 | 59 | 339 | 2.0 | 4.0 | 0.03 | 0.06 | 0.06 | 85 | 1006.1 |
| 20260505221601 | 59 | 332 | 3.0 | 8.0 | 0.06 | 0.06 | 0.06 | 83 | 1005.8 |
| 20260505220058 | 59 | 271 | 3.0 | 14.0 | 0.06 | 0.06 | 0.06 | 77 | 1006.2 |
| 20260505214615 | 61 | 167 | 7.0 | 20.0 | 0.04 | 0.04 | 0.04 | 77 | 1007.0 |
| 20260505213100 | 66 | 48 | 4.0 | 21.0 | 0.03 | 0.03 | 0.03 | 67 | 1006.6 |